Weather History for Ahoskie, NC

Change the Weather History Date:

Wednesday, November 6, 2013

  Actual Average (KEMV) Record (KEMV)
Temperature  
Mean Temperature 56 °F -  
Max Temperature 70 °F 62 °F 82 °F (2003)
Min Temperature 44 °F 38 °F 28 °F (1991)
Degree Days  
Heating Degree Days 8    
Growing Degree Days 6 (Base 50)    
Moisture  
Dew Point 52 °F    
Average Humidity 82    
Maximum Humidity 95    
Minimum Humidity 54    
Precipitation  
Precipitation 0.00 in - - ()
Sea Level Pressure  
Sea Level Pressure 30.30 in    
Wind  
Wind Speed 2 mph (East)    
Max Wind Speed 7 mph    
Max Gust Speed -    
Visibility 10 miles    
Events      
Averages and records for this station are not official NWS values.
T = Trace of Precipitation, MM = Missing Value Source: NWS Daily Summary

Daily Weather History Graph

Daily Weather History Graph

Search for Another Location

Airport:

Trip Planner

Search our weather history database for the weather conditions in past years. The results will help you decide how hot, cold, wet, or windy it might be!

Date:

Astronomy

Nov. 06, 2013 Rise Set
Actual Time 6:36 AM EST 5:07 PM EST
Civil Twilight 6:09 AM EST 5:34 PM EST
Nautical Twilight 5:39 AM EST 6:04 PM EST
Astronomical Twilight 5:09 AM EST 6:35 PM EST
Moon 9:47 AM EST (11/6) 8:11 PM EST (11/6)
Length of Visible Light 11h 24m
Length of Day
10h 30m
Waxing Crescent, 13% of the Moon is Illuminated
Nov 6
Waxing Crescent
Nov 10
First Quarter
Nov 17
Full
Nov 25
Last Quarter
Dec 2
New

Hourly Weather History & Observations

Time (EST) Temp. Windchill Dew Point Humidity Pressure Visibility Wind Dir Wind Speed Gust Speed Precip Events Conditions
12:15 AM 45.7 °F - 43.9 °F 93% 30.45 in 10.0 mi Calm Calm - N/A   Clear
12:35 AM 44.8 °F 43.3 °F 43.0 °F 93% 30.44 in 10.0 mi North 3.5 mph - N/A   Clear
12:55 AM 45.1 °F - 43.3 °F 93% 30.44 in 10.0 mi Calm Calm - N/A   Clear
1:35 AM 46.4 °F - 44.8 °F 94% 30.42 in 10.0 mi Calm Calm - N/A   Clear
1:55 AM 46.6 °F - 45.0 °F 94% 30.42 in 10.0 mi Calm Calm - N/A   Clear
2:15 AM 45.5 °F - 43.5 °F 93% 30.41 in 10.0 mi Calm Calm - N/A   Clear
2:55 AM 45.5 °F 43.2 °F 43.5 °F 93% 30.40 in 10.0 mi North 4.6 mph - N/A   Clear
3:15 AM 46.8 °F - 45.1 °F 94% 30.40 in 10.0 mi North 3.5 mph - N/A   Clear
3:35 AM 47.1 °F - 45.5 °F 94% 30.40 in 10.0 mi North 3.5 mph - N/A   Clear
3:55 AM 47.5 °F - 45.9 °F 94% 30.39 in 10.0 mi Calm Calm - N/A   Clear
4:15 AM 47.5 °F - 45.7 °F 93% 30.39 in 10.0 mi Calm Calm - N/A   Clear
4:35 AM 46.8 °F - 45.1 °F 94% 30.39 in 10.0 mi North 3.5 mph - N/A   Clear
4:55 AM 47.7 °F - 46.4 °F 95% 30.39 in 10.0 mi North 4.6 mph - N/A   Clear
5:15 AM 47.8 °F - 46.4 °F 95% 30.38 in 10.0 mi Calm Calm - N/A   Clear
5:35 AM 48.6 °F - 47.1 °F 95% 30.38 in 10.0 mi Calm Calm - N/A   Clear
5:55 AM 48.4 °F - 46.8 °F 94% 30.38 in 10.0 mi Calm Calm - N/A   Clear
6:15 AM 48.4 °F - 46.8 °F 94% 30.37 in 10.0 mi Calm Calm - N/A   Clear
6:35 AM 48.7 °F - 47.3 °F 95% 30.38 in 10.0 mi Calm Calm - N/A   Clear
6:55 AM 49.1 °F - 47.3 °F 93% 30.38 in 10.0 mi Calm Calm - N/A   Clear
7:15 AM 48.9 °F - 47.3 °F 94% 30.38 in 10.0 mi Calm Calm - N/A   Clear
7:35 AM 49.5 °F - 48.0 °F 95% 30.38 in 10.0 mi Calm Calm - N/A   Clear
7:55 AM 51.3 °F - 49.6 °F 94% 30.38 in 10.0 mi Calm Calm - N/A   Clear
8:15 AM 53.4 °F - 50.9 °F 91% 30.38 in 10.0 mi ENE 3.5 mph - N/A   Clear
8:35 AM 54.9 °F - 52.0 °F 90% 30.38 in 10.0 mi Calm Calm - N/A   Clear
8:55 AM 57.7 °F - 53.2 °F 85% 30.37 in 10.0 mi ENE 4.6 mph - N/A   Clear
9:15 AM 59.2 °F - 52.9 °F 80% 30.37 in 10.0 mi East 5.8 mph - N/A   Clear
9:35 AM 61.3 °F - 53.1 °F 74% 30.36 in 10.0 mi Calm Calm - N/A   Scattered Clouds
9:55 AM 62.8 °F - 52.2 °F 68% 30.36 in 10.0 mi East 6.9 mph - N/A   Scattered Clouds
10:15 AM 64.2 °F - 52.3 °F 65% 30.36 in 10.0 mi NE 5.8 mph - N/A   Scattered Clouds
10:35 AM 65.7 °F - 51.3 °F 60% 30.35 in 10.0 mi East 4.6 mph - N/A   Scattered Clouds
10:55 AM 66.7 °F - 52.2 °F 59% 30.35 in 10.0 mi East 4.6 mph - N/A   Clear
11:15 AM 66.2 °F - 51.1 °F 58% 30.34 in 10.0 mi ESE 4.6 mph - N/A   Mostly Cloudy
11:35 AM 68.0 °F - 51.6 °F 56% 30.33 in 10.0 mi ESE 4.6 mph - N/A   Overcast
11:55 AM 67.3 °F - 51.1 °F 56% 30.32 in 10.0 mi Calm Calm - N/A   Overcast
12:15 PM 68.4 °F - 50.9 °F 54% 30.31 in 10.0 mi ESE 4.6 mph - N/A   Overcast
12:35 PM 68.4 °F - 51.4 °F 55% 30.30 in 10.0 mi East 4.6 mph - N/A   Overcast
12:55 PM 68.7 °F - 51.8 °F 55% 30.29 in 10.0 mi Calm Calm - N/A   Mostly Cloudy
1:15 PM 69.8 °F - 52.7 °F 54% 30.28 in 10.0 mi East 3.5 mph - N/A   Scattered Clouds
1:35 PM 69.6 °F - 53.8 °F 57% 30.28 in 10.0 mi ESE 3.5 mph - N/A   Mostly Cloudy
1:55 PM 69.1 °F - 53.6 °F 58% 30.27 in 10.0 mi Calm Calm - N/A   Overcast
2:15 PM 68.9 °F - 54.5 °F 60% 30.27 in 10.0 mi Calm Calm - N/A   Overcast
2:35 PM 68.0 °F - 55.6 °F 64% 30.27 in 10.0 mi East 3.5 mph - N/A   Overcast
2:55 PM 67.3 °F - 56.3 °F 68% 30.27 in 7.0 mi Calm Calm - N/A   Overcast
3:15 PM 67.6 °F - 55.9 °F 66% 30.26 in 10.0 mi Calm Calm - N/A   Mostly Cloudy
3:35 PM 67.1 °F - 55.9 °F 67% 30.24 in 10.0 mi East 3.5 mph - N/A   Overcast
3:55 PM 67.1 °F - 55.8 °F 67% 30.24 in 10.0 mi Calm Calm - N/A   Mostly Cloudy
4:15 PM 66.9 °F - 56.5 °F 69% 30.24 in 10.0 mi SSE 3.5 mph - N/A   Mostly Cloudy
4:35 PM 66.6 °F - 55.9 °F 69% 30.24 in 10.0 mi Calm Calm - N/A   Overcast
4:55 PM 65.5 °F - 56.5 °F 73% 30.24 in 10.0 mi ESE 4.6 mph - N/A   Overcast
5:15 PM 63.3 °F - 57.4 °F 81% 30.24 in 10.0 mi SSE 6.9 mph - N/A   Overcast
5:35 PM 62.6 °F - 57.6 °F 84% 30.24 in 10.0 mi Calm Calm - N/A   Overcast
5:55 PM 61.9 °F - 57.4 °F 85% 30.23 in 10.0 mi Calm Calm - N/A   Overcast
6:15 PM 61.2 °F - 57.2 °F 87% 30.23 in 10.0 mi ESE 3.5 mph - N/A   Scattered Clouds
6:35 PM 60.1 °F - 56.5 °F 88% 30.22 in 10.0 mi Calm Calm - N/A   Scattered Clouds
6:55 PM 60.1 °F - 57.0 °F 90% 30.22 in 10.0 mi Calm Calm - N/A   Mostly Cloudy
7:15 PM 60.3 °F - 57.4 °F 90% 30.22 in 10.0 mi Calm Calm - N/A   Overcast
7:35 PM 60.1 °F - 57.6 °F 91% 30.21 in 10.0 mi ESE 3.5 mph - N/A   Mostly Cloudy
7:55 PM 59.9 °F - 57.6 °F 92% 30.20 in 10.0 mi ESE 4.6 mph - N/A   Scattered Clouds
8:15 PM 59.9 °F - 57.6 °F 92% 30.20 in 10.0 mi ESE 3.5 mph - N/A   Scattered Clouds
8:35 PM 59.9 °F - 57.6 °F 92% 30.19 in 10.0 mi ESE 5.8 mph - N/A   Overcast
8:55 PM 60.1 °F - 57.6 °F 91% 30.19 in 10.0 mi ESE 6.9 mph - N/A   Mostly Cloudy
9:15 PM 60.3 °F - 57.6 °F 91% 30.18 in 10.0 mi Calm Calm - N/A   Overcast
9:35 PM 60.3 °F - 57.6 °F 91% 30.17 in 10.0 mi East 3.5 mph - N/A   Overcast
9:55 PM 59.9 °F - 57.4 °F 91% 30.17 in 10.0 mi Calm Calm - N/A   Mostly Cloudy
10:15 PM 60.4 °F - 57.9 °F 91% 30.17 in 10.0 mi Calm Calm - N/A   Mostly Cloudy
10:35 PM 60.4 °F - 58.1 °F 92% 30.16 in 10.0 mi Calm Calm - N/A   Overcast
10:55 PM 60.4 °F - 58.1 °F 92% 30.15 in 10.0 mi Calm Calm - N/A   Overcast
11:15 PM 60.4 °F - 58.3 °F 93% 30.14 in 10.0 mi SE 3.5 mph - N/A   Overcast
11:35 PM 60.3 °F - 58.5 °F 94% 30.14 in 10.0 mi Calm Calm - N/A   Overcast
11:55 PM 60.4 °F - 58.6 °F 94% 30.14 in 10.0 mi Calm Calm - N/A   Overcast